Zurück zum Katalog

GALAXY 11

AktivKommunikationGEO
NORAD 26038·PAYLOAD·🇺🇸 United States

Gestartet Dec 22, 1999 von Guiana Space Centre

Loading…

TLE

AktuellSource: Space-Track

Epoche: Sep 14, 2026, 14:07 UTC

1 26038U 99071A   26257.58862105  .00000067  00000-0  00000+0 0  9994
2 26038   6.9691  69.5244 0007172 343.9727 220.4561  0.99020347 97891

Verfolge GALAXY 11 in Echtzeit mit AllMySat

Download on the App Store